Content
SEND FEEDBACK

Daily
Averages
Monthly
Summary
United Kingdom

LIVERPOOL, ENGLAND


Home > Europe > United Kingdom > England
Elevation: 85 feet     Latitude: 53 20N     Longitude: 002 51W

WEATHER
 
SELECT A DAY
Number of Records: 285,244;   Date Range: 7/1/96 - 9/19/14
 
SHARE

PRINT THIS DATA

[ ← Previous Day ]
WEATHER ALMANAC - JULY 20, 2014
[ Next Day → ]
[ °C ]   °F
Weather ElementAverageHighLow
Temperature64.6 °F71.6 °F (1:50 pm)60.8 °F (1:20 am)
Dewpoint60.2 °F62.6 °F (3:50 pm)59 °F (1:20 am)
Humidity86.2 %94 % (12:50 am)69 % (1:50 pm)
Barometer29.88 in30.01 in (10:50 pm)29.77 in (1:20 am)
Wind Speed9.6 mph17.3 mph (6:50 pm)
Weather ElementAverage
Visibility6.1 mi
Wind DirectionWNW (285.9 °)

Weather ElementTotal
Precipitation---
Cooling Degree Days1.2 (Base 65)
Growing Degree Days16.2 (Base 50)
Averaged from 41 records on July 20, 2014
WEATHER CONDITIONS BREAKOUT
WIND DIRECTION BREAKOUT
WEATHER BY HOUR - JULY 20, 2014
[ °C ]   °F
Local TimeTemperatureDewpointHumidityBarometerVisibilityWind DirectionWind SpeedGust SpeedPrecipitationEventsConditions
12:50 AM62.6 °F60.8 °F94 %29.80 in6.2 miVariable2.3 mphScattered Clouds
1:20 AM60.8 °F59.0 °F94 %29.77 in5.6 miWest (280°)4.6 mphScattered Clouds
1:50 AM62.6 °F60.8 °F94 %29.80 in5.6 miWest (280°)8.1 mphScattered Clouds
2:20 AM60.8 °F59.0 °F94 %29.80 in5.6 miWNW (290°)5.8 mphScattered Clouds
2:50 AM60.8 °F59.0 °F94 %29.80 in6.2 miNW (310°)3.5 mphScattered Clouds
4:20 AM62.6 °F60.8 °F94 %29.80 in5.6 miNNW (340°)6.9 mphScattered Clouds
5:20 AM62.6 °F60.8 °F94 %29.80 in6.2 miWNW (300°)4.6 mphScattered Clouds
5:50 AM62.6 °F60.8 °F94 %29.80 in5.6 miWNW (300°)5.8 mphScattered Clouds
6:20 AM62.6 °F60.8 °F94 %29.80 in5.6 miWNW (290°)4.6 mphScattered Clouds
6:50 AM62.6 °F60.8 °F94 %29.83 in6.2 miWest (280°)8.1 mphMostly Cloudy
7:20 AM62.6 °F60.8 °F94 %29.83 in6.2 miWNW (290°)6.9 mphMostly Cloudy
7:50 AM62.6 °F60.8 °F94 %29.83 in6.2 miWNW (290°)8.1 mphScattered Clouds
8:20 AM62.6 °F60.8 °F94 %29.83 in6.2 miWNW (300°)8.1 mphScattered Clouds
8:50 AM64.4 °F60.8 °F88 %29.83 in6.2 miWNW (290°)8.1 mphMostly Cloudy
9:20 AM64.4 °F60.8 °F88 %29.83 in6.2 miWNW (290°)10.4 mphPartly Cloudy
9:50 AM66.2 °F60.8 °F83 %29.83 in6.2 miWNW (290°)11.5 mphPartly Cloudy
10:20 AM66.2 °F60.8 °F83 %29.83 in6.2 miWNW (290°)9.2 mphScattered Clouds
10:50 AM66.2 °F60.8 °F83 %29.86 in6.2 miWNW (290°)9.2 mphScattered Clouds
11:20 AM66.2 °F60.8 °F83 %29.86 in6.2 miNW (320°)8.1 mphScattered Clouds
12:20 PM69.8 °F60.8 °F73 %29.86 in6.2 miNW (320°)8.1 mphPartly Cloudy
12:50 PM69.8 °F60.8 °F73 %29.86 in6.2 miWNW (300°)11.5 mphPartly Cloudy
1:20 PM69.8 °F60.8 °F73 %29.86 in6.2 miNNW (330°)10.4 mphPartly Cloudy
1:50 PM71.6 °F60.8 °F69 %29.86 in6.2 miWNW (300°)10.4 mphPartly Cloudy
2:20 PM69.8 °F60.8 °F73 %29.89 in6.2 miWNW (300°)11.5 mphPartly Cloudy
2:50 PM69.8 °F60.8 °F73 %29.89 in6.2 miWNW (300°)15.0 mphPartly Cloudy
3:20 PM68.0 °F60.8 °F78 %29.89 in6.2 miNW (310°)13.8 mphPartly Cloudy
3:50 PM69.8 °F62.6 °F78 %29.89 in6.2 miWNW (300°)15.0 mphScattered Clouds
4:50 PM68.0 °F60.8 °F78 %29.92 in6.2 miWest (280°)13.8 mphScattered Clouds
5:20 PM68.0 °F60.8 °F78 %29.92 in6.2 miWest (280°)16.1 mphScattered Clouds
5:50 PM64.4 °F60.8 °F88 %29.92 in6.2 miWest (280°)15.0 mphMostly Cloudy
6:20 PM64.4 °F59.0 °F83 %29.92 in6.2 miWNW (290°)12.7 mphMostly Cloudy
6:50 PM64.4 °F59.0 °F83 %29.92 in6.2 miWest (280°)17.3 mphMostly Cloudy
7:20 PM62.6 °F59.0 °F88 %29.95 in6.2 miWNW (290°)12.7 mphMostly Cloudy
8:20 PM62.6 °F59.0 °F88 %29.95 in6.2 miWest (280°)10.4 mphMostly Cloudy
8:50 PM62.6 °F59.0 °F88 %29.98 in6.2 miWest (280°)9.2 mphScattered Clouds
9:20 PM60.8 °F59.0 °F94 %29.98 in6.2 miWest (270°)8.1 mphPartly Cloudy
9:50 PM62.6 °F59.0 °F88 %29.98 in6.2 miWest (280°)10.4 mphPartly Cloudy
10:20 PM62.6 °F59.0 °F88 %29.98 in6.2 miWest (280°)9.2 mphPartly Cloudy
10:50 PM62.6 °F59.0 °F88 %30.01 in6.2 miWest (280°)10.4 mphPartly Cloudy
11:20 PM60.8 °F59.0 °F94 %30.01 inWest (280°)9.2 mphClear
11:50 PM62.6 °F59.0 °F88 %30.01 in6.2 miWNW (290°)10.4 mphPartly Cloudy
Hourly data recorded from EGGP, located miles away from Liverpool, England







STORIES FROM OUR PARTNERS